Torna al catalogo

STARLINK-31443

AttivoComunicazioniVLEO
NORAD 59393·PAYLOAD·🇺🇸 United States

Lanciato Apr 2, 2024 da Vandenberg Space Force Base

Loading…

Prossimi Passaggi (prossime 24 ore)

TLE

AggiornatoSource: CelesTrak SupGP

Epoca: Sep 14, 2026, 20:40 UTC

1 59393C 24062V   26257.86159722 -.00021090  00000+0 -62338-3 0  2570
2 59393  53.1585  80.1340 0001308  85.5655 116.7274 15.34386958    11

Traccia STARLINK-31443 in tempo reale con AllMySat

Download on the App Store